Content
SEND FEEDBACK

Daily
Averages
Monthly
Summary
United States of America

YIGO, GUAM


Home > North America > United States > Guam
Elevation: 530 feet     Latitude: 13 32N     Longitude: 144 53E

WEATHER
 
SELECT A DAY
Number of Records: 208,860;   Date Range: 1/1/95 - 7/20/14
 
SHARE

PRINT THIS DATA

[ ← Previous Day ]
WEATHER ALMANAC - JUNE 26, 2013
[ Next Day → ]
[ °C ]   °F
We're sorry. There is no daily almanac available for Yigo, Guam on June 26, 2013.
WEATHER BY HOUR - JUNE 26, 2013
[ °C ]   °F
Local TimeTemperatureDewpointHumidityBarometerVisibilityWind DirectionWind SpeedGust SpeedPrecipitationEventsConditions
1:54 AM84.0 °F75.9 °F76 %29.85 in10.0 miEast (80°)13.8 mphPartly Cloudy
2:54 AM82.9 °F77.0 °F82 %29.84 in10.0 miEast (90°)12.7 mph0.00 inScattered Clouds
3:02 AM82.4 °F77.0 °F84 %29.86 in10.0 miEast (90°)10.4 mphMostly Cloudy
3:10 AM82.4 °F75.2 °F79 %29.86 in10.0 miEast (90°)11.5 mphScattered Clouds
3:54 AM84.0 °F75.0 °F74 %29.83 in10.0 miEast (90°)12.7 mphPartly Cloudy
4:54 AM84.0 °F75.0 °F74 %29.83 in10.0 miEast (90°)11.5 mphPartly Cloudy
5:54 AM84.0 °F75.9 °F76 %29.84 in10.0 miEast (90°)9.2 mphScattered Clouds
6:54 AM84.0 °F75.0 °F74 %29.86 in10.0 miEast (100°)13.8 mph19.6 mphPartly Cloudy
7:54 AM86.0 °F75.9 °F72 %29.86 in10.0 miEast (100°)11.5 mphPartly Cloudy
8:14 AM84.2 °F77.0 °F79 %29.89 in10.0 miESE (110°)10.4 mph0.00 inRainLight Rain
8:45 AM86.0 °F75.2 °F70 %29.90 in10.0 miESE (110°)13.8 mph0.00 inScattered Clouds
8:54 AM86.0 °F75.0 °F70 %29.88 in10.0 miESE (110°)13.8 mph0.00 inScattered Clouds
9:54 AM87.1 °F75.0 °F67 %29.87 in10.0 miEast (100°)13.8 mph23.0 mph0.00 inPartly Cloudy
10:54 AM90.0 °F75.9 °F63 %29.86 in10.0 miESE (110°)10.4 mph24.2 mphPartly Cloudy
11:54 AM89.1 °F75.9 °F65 %29.86 in10.0 miESE (120°)9.2 mph23.0 mphPartly Cloudy
12:54 PM88.0 °F78.1 °F72 %29.84 in10.0 miESE (110°)9.2 mph0.02 inScattered Clouds
1:54 PM89.1 °F77.0 °F67 %29.83 in10.0 miESE (120°)11.5 mph18.4 mphMostly Cloudy
2:54 PM89.1 °F75.9 °F65 %29.82 in10.0 miESE (110°)9.2 mph17.3 mphPartly Cloudy
3:30 PM87.8 °F77.0 °F70 %29.84 in10.0 miESE (120°)10.4 mphMostly Cloudy
3:41 PM87.8 °F75.2 °F66 %29.84 in10.0 miEast (100°)9.2 mphScattered Clouds
3:49 PM87.8 °F75.2 °F66 %29.84 in10.0 miEast (100°)11.5 mphMostly Cloudy
3:54 PM89.1 °F75.9 °F65 %29.82 in10.0 miEast (100°)11.5 mphMostly Cloudy
4:54 PM86.0 °F77.0 °F74 %29.81 in10.0 miESE (110°)10.4 mph0.03 inClear
5:54 PM86.0 °F77.0 °F74 %29.82 in10.0 miEast (80°)10.4 mphPartly Cloudy
6:54 PM84.0 °F78.1 °F82 %29.82 in10.0 miEast (80°)5.8 mph0.03 inPartly Cloudy
7:54 PM82.4 °F77.0 °F84 %29.85 in10.0 miEast (80°)8.1 mphPartly Cloudy
8:54 PM82.4 °F77.0 °F84 %29.86 in10.0 miEast (100°)4.6 mphPartly Cloudy
9:54 PM81.0 °F77.0 °F88 %29.86 in10.0 miEast (100°)4.6 mph0.01 inPartly Cloudy
10:54 PM82.0 °F77.0 °F85 %29.87 in10.0 miESE (110°)4.6 mphPartly Cloudy
11:54 PM80.1 °F73.9 °F81 %29.87 in1.2 miESE (120°)10.4 mph25.3 mph0.06 inRainHeavy Rain
Hourly data recorded from PGUM, located miles away from Yigo, Guam







STORIES FROM OUR PARTNERS